Location: ???????
(55.8719°N, 38.1523°E)
Time: 16:52:43
(UTC+00:00)

Cosmos 2237 Rocket - Pass Details

Date: 14 April 2024
Orbit: 833 x 851 km, 71.0° (Epoch: 24 May)

Event Time Altitude Azimuth Distance (km) Brightness Sun altitude
Exits shadow 01:29:17 - 213° (SSW) 2,795 4.4 -7.8°
Reaches altitude 10° 01:30:09 10° 214° (SSW) 2,460 4.1 -7.7°
Maximum altitude 01:35:50 88° 303° (WNW) 855 2.3 -7.0°
Drops below altitude 10° 01:41:34 10° 34° (NE) 2,486 5.8 -6.3°
Sets 01:44:02 0° 35° (NE) 3,427 6.6 -6.0°
